Location: Casa Rossa
(45.2389°N, 12.2056°E)
Time: 04:26:36
(UTC+00:00)

IRS-1D - Pass Details

Date: 14 July 2020
Orbit: 739 x 817 km, 98.6° (Epoch: 11 August)

Event Time Altitude Azimuth Distance (km) Brightness Sun altitude
Rises 02:18:44 0° 6° (N) 3,196 7.6 -11.4°
Reaches altitude 10° 02:21:11 10° 357° (N) 2,263 6.6 -11.1°
Maximum altitude 02:25:38 35° 293° (WNW) 1,197 4.3 -10.6°
Enters shadow 02:29:29 13° 233° (SW) 2,045 5.1 -10.1°
